Location: Val-d'Or
(48.1170°N, 77.7670°W)
Time: 21:35:08
(UTC-04:00)

ISS - Pass Details

Date: 16 May 2018
Orbit: 402 x 407 km, 51.6° (Epoch: 23 May)

Event Time Altitude Azimuth Distance (km) Brightness Sun altitude
Exits shadow 02:07:29 60° 3° (N) 467 -3.3 -21.5°
Drops below altitude 10° 02:10:33 10° 66° (ENE) 1,459 -0.5 -21.3°
Sets 02:12:39 0° 70° (ENE) 2,320 0.5 -21.2°
